SCP
0 0 0 0 0 0 0 0 0 0 0 0 0 0 0 0 0 0 0 0 0 0 0 0 0 0 0 0 0 0 0 0 0 0 0 0 0 0 0 0 0 0 0 0
0 0 0 0 0 0 0 0 0 0 0 0 0 0 0 0 0 0 0 0 0 0 0 0 0 0 0 0 0 0 0 0 0 0 0 0 0 0 0 0 0 0 0 0
0 0 0 0 0 0 0 0 0 0 0 0 0 0 0 0 0 0 0 0 0 0 0 0 0 0 0 0 0 0 0 0 0 0 0 0 0 0 0 0 0 0 0 0
0 0 0 0 0 0 0 0 0 0 0 0 0 0 0 0 0 0 0 0 0 0 0 0 0 0 0 0 0 0 0 0 0 0 0 0 0 0 0 0 0 0 0 0
0 0 0 0 0 0 0 0 0 0 0 0 0 0 0 0 0 0 0 0 0 0 0 0 0 0 0 0 0 0 0 0 0 0 0 0 0 0 0 0 0 0 0 0
0 0 0 0 0 0 0 0 0 0 0 0 0 0 0 0 0 0 0 0 0 0 0 0 0 0 0 0 0 0 0 0 0 0 0 0 0 0 0 0 0 0 0 0
0 0 0 0 0 0 0 0 0 0 0 0 0 0 0 0 0 0 0 0 0 0 0 0 0 0 0 1 1 1 1 1 0 0 0 0 0 0 0 0 0 0 0 0
0 0 0 0 0 0 0 0 0 0 0 0 0 0 0 0 0 0 0 0 0 0 0 0 0 0 1 1 1 1 1 1 1 0 0 0 0 0 0 0 0 0 0 0
0 0 0 0 0 0 0 0 0 0 0 0 0 0 0 0 0 0 0 0 0 0 0 0 0 0 0 1 1 1 1 1 1 1 0 0 0 0 0 0 0 0 0 0
0 0 0 0 0 0 0 0 0 0 0 0 0 0 0 0 0 0 0 0 0 0 0 0 0 0 0 0 1 1 1 1 1 1 0 0 0 0 0 0 0 0 0 0
0 0 0 0 0 0 0 0 0 0 0 0 0 0 0 0 0 0 0 0 0 0 0 0 0 0 0 0 1 1 1 1 1 1 0 0 0 0 0 0 0 0 0 0
0 0 0 0 0 0 0 0 0 0 0 0 0 0 0 0 0 0 0 0 0 0 0 0 0 0 1 1 1 1 1 1 1 1 0 0 0 0 0 0 0 0 0 0
0 0 0 0 0 0 0 0 0 0 0 0 0 0 0 0 0 0 0 0 0 0 0 0 0 1 1 1 1 1 1 1 1 0 0 0 0 0 0 0 0 0 0 0
0 0 0 0 0 0 0 0 0 0 0 0 0 0 0 0 0 0 0 0 0 0 0 0 1 1 1 1 1 1 1 1 1 0 0 0 0 0 0 0 0 0 0 0
0 0 0 0 0 0 0 0 0 0 0 0 0 0 0 0 0 0 0 1 1 1 1 1 1 1 1 1 1 1 1 1 1 1 1 1 0 0 0 0 0 0 0 0
0 0 0 0 0 0 0 0 0 0 0 0 0 0 0 0 0 0 0 1 1 1 1 1 1 1 1 1 1 1 1 1 1 1 1 1 1 1 0 0 0 0 0 0
0 0 0 0 0 0 0 0 0 0 0 0 0 0 0 0 0 0 0 1 1 1 1 1 1 1 1 1 1 1 1 1 1 1 1 1 1 1 1 0 0 0 0 0
0 0 0 0 0 0 0 0 0 0 0 0 0 0 0 0 0 0 0 0 1 1 1 1 1 1 1 1 1 1 1 1 1 1 1 1 1 1 1 1 1 1 1 1
0 0 0 0 0 0 0 0 0 0 0 0 0 0 0 0 0 0 0 0 1 1 1 1 1 1 1 1 1 1 1 1 1 1 1 1 1 1 1 1 1 1 1 1
0 0 0 0 0 0 0 0 0 0 0 0 0 0 0 0 0 0 1 1 1 1 1 1 1 1 1 1 2 2 2 2 2 2 2 2 1 1 1 1 1 1 1 1
0 0 0 0 0 0 0 0 0 0 0 0 0 0 0 0 1 1 1 1 1 1 1 1 1 1 2 2 2 2 2 2 2 2 2 2 2 1 1 1 1 1 1 1
0 0 0 0 0 0 0 0 0 0 0 0 0 0 1 1 1 1 1 1 1 1 1 1 1 1 2 2 2 2 2 2 2 2 2 2 2 1 1 1 1 1 1 1
0 0 0 0 0 0 0 0 0 1 1 1 1 1 1 1 1 1 1 1 1 1 1 1 1 1 2 2 2 2 2 2 2 2 2 2 1 1 1 1 1 1 1 1
0 0 0 0 0 0 0 0 1 1 1 1 1 1 1 1 1 1 1 1 1 1 1 1 1 1 2 2 2 2 2 2 2 2 2 1 1 1 1 1 1 1 1 1
0 0 0 0 0 0 1 1 1 1 1 1 1 1 1 1 1 1 1 1 1 1 1 1 1 2 2 2 2 2 2 2 2 2 1 1 1 1 1 1 1 1 1 1
0 0 0 0 1 1 1 1 1 1 1 1 1 1 1 1 1 1 1 1 1 1 1 1 1 1 2 2 2 2 2 2 2 1 1 1 1 1 1 1 1 0 0 0
Wind_Speed
9 10 10 8 7 4 4 4 4 4 5 7 6 5 8 11 11 10 10 10 10 8 8 8 7 6 5 5 5 4 4 4 3 2 2 2 2 1 2 2 3 2 2 2
10 12 9 7 7 7 7 6 5 5 5 6 5 6 7 10 12 11 11 11 11 10 9 9 8 7 6 6 6 6 5 5 4 3 1 1 1 1 1 2 2 2 2 1
14 8 8 10 10 10 9 8 5 5 6 7 6 7 9 10 11 11 11 11 11 11 11 10 9 8 8 7 7 5 5 5 4 4 3 3 2 1 2 2 2 1 1 1
12 7 9 12 12 11 9 6 6 7 8 5 7 5 8 10 12 13 13 13 13 12 11 11 10 9 8 8 7 6 6 5 5 5 4 3 2 2 2 1 2 2 1 1
10 10 11 13 11 11 5 5 7 8 8 7 7 7 4 9 10 13 14 14 14 13 13 12 11 10 9 8 8 7 7 6 5 5 4 4 3 2 2 2 2 1 1 1
7 7 9 9 7 8 7 7 7 8 9 9 6 8 4 6 8 9 12 14 14 14 13 12 11 10 9 9 8 8 7 6 6 5 5 4 3 2 2 1 1 1 1 1
10 10 8 7 9 11 12 11 8 9 9 8 5 8 4 1 3 6 9 12 14 14 13 13 12 11 10 10 9 8 8 7 7 6 5 5 4 4 3 2 2 1 1 1
13 13 11 10 10 10 14 14 10 8 8 7 7 8 3 2 2 4 7 10 12 13 13 13 13 12 11 11 10 9 9 8 7 6 6 5 5 4 3 3 1 1 0 1
11 10 9 8 8 10 13 13 11 11 9 8 7 7 6 5 5 6 9 11 12 12 13 13 13 13 12 11 11 10 10 8 7 7 6 5 5 3 2 3 2 2 1 1
7 8 9 8 9 7 9 10 9 10 10 11 9 10 6 8 8 8 9 10 11 12 13 13 12 12 11 11 10 10 10 9 8 8 6 5 5 4 3 3 2 1 1 1
8 9 9 10 10 11 10 11 10 10 10 11 10 6 3 5 6 7 8 9 10 12 12 12 12 12 11 11 10 10 10 9 8 7 6 6 5 5 4 3 3 2 2 2
8 9 9 9 6 6 9 11 12 11 10 10 11 4 3 3 4 6 7 7 8 10 11 11 12 11 11 11 11 10 10 9 9 8 7 7 6 5 5 4 3 3 3 3
7 7 9 10 10 9 10 11 12 11 10 11 12 6 4 3 4 5 5 6 7 8 9 10 10 11 11 11 10 10 10 9 9 9 8 7 7 6 5 5 5 4 4 3
7 10 11 12 7 9 12 12 12 13 11 11 13 9 5 5 4 4 4 5 7 8 9 10 10 10 10 10 10 10 10 9 9 9 8 8 7 7 6 6 5 5 4 4
7 11 12 11 8 9 11 13 14 15 15 14 12 11 7 5 4 4 4 5 6 8 9 10 10 10 10 10 10 10 9 9 9 9 9 8 7 7 6 6 6 5 4 4
6 9 10 12 11 11 13 14 15 15 15 15 14 11 6 3 4 5 5 6 6 7 8 9 9 9 10 10 10 10 9 9 9 9 9 8 7 7 7 6 6 5 5 4
7 9 11 12 11 12 16 14 14 13 12 13 13 10 6 6 6 6 6 7 6 7 7 8 8 9 9 9 10 10 9 9 9 9 9 8 8 8 7 7 6 6 5 5
8 9 9 10 11 16 9 8 11 12 12 11 10 7 6 6 6 5 5 5 5 5 6 7 7 7 8 8 9 9 9 10 10 9 9 8 8 8 8 7 6 6 5 4
9 10 9 10 13 13 9 8 9 11 11 9 9 8 6 5 5 6 5 5 5 5 5 6 6 7 7 8 9 9 10 10 9 9 9 8 8 8 8 8 7 6 5 5
8 10 10 11 13 13 8 6 5 8 11 7 7 7 6 7 8 5 4 3 3 4 4 5 6 7 7 8 9 10 10 9 9 9 8 8 8 8 8 7 7 6 6 5
11 11 13 14 13 10 3 5 7 11 4 2 3 4 5 6 5 1 2 2 3 4 4 5 6 6 7 9 10 10 9 8 7 7 7 7 7 7 7 7 6 6 6 5
10 10 11 11 13 9 4 6 6 1 2 0 1 2 4 4 2 2 3 2 3 4 5 6 6 6 6 8 9 9 9 8 8 7 7 7 7 6 6 7 6 6 6 6
8 5 5 6 4 3 1 0 1 1 1 2 2 3 3 3 3 2 3 3 3 4 5 6 7 7 7 7 8 9 8 8 9 9 8 7 6 6 6 6 7 6 6 5
5 4 5 5 4 2 2 1 1 2 2 3 3 3 3 3 2 2 2 3 4 5 5 5 7 7 6 6 6 7 8 8 8 8 8 7 7 7 6 5 5 5 5 4
4 5 6 7 5 4 3 3 2 3 3 3 3 3 3 3 3 3 3 3 4 4 5 5 6 6 7 6 6 7 7 7 8 7 7 7 6 7 6 5 3 3 3 1
6 7 8 5 3 4 2 2 4 4 4 3 2 3 2 2 2 3 3 3 4 5 5 6 6 6 6 6 6 6 7 7 8 7 7 5 5 5 6 6 5 6 4 5
Wind_Direction
191 210 209 207 223 242 222 215 188 153 159 202 211 196 175 180 194 193 189 188 187 185 178 179 180 180 174 170 171 171 173 158 171 159 165 146 129 107 97 97 84 71 50 55
196 214 212 205 208 218 218 218 197 161 172 218 221 218 192 191 202 201 198 196 191 185 183 183 184 186 185 178 179 178 181 173 184 157 158 136 105 118 101 83 84 85 80 58
215 203 188 194 197 210 218 224 211 186 178 207 229 215 201 198 205 204 205 203 198 192 188 185 188 191 189 186 186 184 180 177 184 173 177 154 154 163 133 118 121 95 91 98
222 195 194 203 205 214 215 213 213 197 208 204 230 243 184 193 198 205 207 204 200 194 192 190 189 190 191 188 182 181 177 181 181 188 192 188 180 152 121 131 103 105 103 102
206 198 203 212 211 216 214 193 207 215 229 237 218 259 173 179 204 207 205 204 200 195 194 192 191 187 189 186 181 176 174 179 181 188 182 199 194 167 149 137 120 142 119 126
206 197 217 217 203 201 171 173 188 219 238 238 229 253 225 186 210 203 193 195 195 192 192 191 188 184 185 182 180 174 168 175 178 183 185 194 182 172 153 161 155 183 147 138
196 194 191 196 185 181 196 200 205 214 223 232 205 245 255 167 197 203 188 184 186 186 187 188 186 183 183 181 179 176 171 176 179 183 186 186 187 185 186 199 175 218 159 125
199 195 187 197 210 203 210 222 233 238 235 221 204 236 226 148 185 185 181 178 179 183 185 186 185 183 184 182 181 179 175 178 179 182 184 188 193 203 185 182 206 180 179 82
210 201 176 192 215 224 212 226 246 254 255 255 228 225 213 186 185 179 175 173 178 182 183 184 184 183 183 182 181 182 177 178 180 181 179 182 190 200 181 170 193 174 156 147
225 210 182 182 197 213 242 224 226 240 247 247 238 233 223 189 188 180 177 177 176 180 181 181 182 182 182 180 178 179 176 176 179 179 181 173 178 179 179 182 149 137 137 118
222 214 191 191 209 203 202 215 231 237 247 250 247 232 202 204 198 189 186 182 178 181 181 178 178 179 178 177 174 175 174 172 173 175 175 173 170 172 174 173 169 163 156 149
217 225 211 206 204 244 224 225 223 232 234 249 262 244 123 163 186 185 181 178 179 181 179 175 173 173 175 176 175 174 174 172 170 170 169 171 168 167 166 162 158 156 153 154
201 221 210 198 194 202 221 224 229 236 240 243 249 234 147 161 177 181 176 170 170 176 176 170 170 173 176 176 177 176 175 174 170 168 171 169 169 169 165 158 155 155 153 146
236 225 234 233 222 200 211 220 226 233 238 240 244 249 206 192 195 188 185 183 177 175 176 173 171 175 175 175 176 177 176 174 169 170 172 169 171 169 164 160 157 156 155 150
233 228 231 242 240 235 228 227 227 233 243 250 246 244 238 228 223 206 194 192 183 178 178 175 174 174 176 176 177 178 175 172 171 172 170 170 168 165 164 161 159 157 157 154
230 234 226 232 228 232 238 235 234 236 241 247 251 248 246 238 224 207 202 199 193 185 180 177 176 175 178 178 178 176 174 172 172 173 170 166 166 167 167 166 161 157 154 150
218 221 226 232 224 233 234 230 232 233 235 241 245 245 227 225 220 213 205 203 200 190 183 180 179 179 180 177 175 174 170 170 173 172 169 167 170 172 170 169 165 162 158 154
227 227 230 233 222 233 232 222 229 235 239 242 245 239 230 231 225 217 214 210 205 195 188 184 181 178 178 175 171 169 166 169 171 171 172 171 171 173 170 169 169 168 164 162
222 222 229 229 229 233 223 213 220 231 236 233 239 236 229 221 219 212 204 208 208 200 192 185 182 178 174 171 167 166 168 167 169 171 172 173 175 175 173 172 172 169 165 160
201 220 229 226 234 235 217 186 207 235 235 215 232 226 211 210 230 199 164 199 202 192 182 179 176 171 170 167 164 167 169 166 169 170 170 170 173 175 173 171 169 164 163 160
189 204 222 229 234 238 178 161 194 224 221 164 221 220 211 224 267 48 180 193 188 178 170 169 167 170 166 163 164 167 165 167 165 160 161 163 167 170 167 162 161 160 159 153
211 208 211 224 232 225 129 188 217 331 32 359 253 252 245 252 247 188 181 174 175 173 169 165 160 158 159 162 163 163 163 156 152 153 153 155 160 160 155 157 159 159 159 160
233 253 244 238 241 61 114 119 46 329 272 303 288 279 260 242 229 195 172 169 169 169 169 163 156 150 152 161 164 163 157 154 154 153 150 151 152 149 155 163 164 167 174 175
211 252 251 245 230 213 202 211 255 281 283 289 278 268 248 237 210 180 168 161 162 163 164 161 155 150 148 153 158 155 154 156 155 153 150 154 156 156 155 168 174 173 175 177
237 221 229 237 237 228 232 249 268 289 294 287 288 283 256 215 198 181 165 155 158 155 157 159 156 149 144 143 142 147 151 155 155 154 156 160 162 154 154 153 135 164 136 145
238 244 246 249 239 246 226 272 286 282 284 291 304 296 271 210 191 172 161 157 158 157 155 157 155 150 147 147 147 150 155 159 159 159 162 166 162 158 157 150 132 64 78 92